PWSweather.com
Personal Weather Stations
Station Observations
INORDPAS37
Bondues, BonduesFR 59910

BonduesBonduesFR 59910

Lat: 50.7, Lon: 3.09

Elevation: 66

Station Type: NetAtmo

Latest ConditionsUpdated 6:51:06 AM GMT+01:01 Monday, Aug 21, 2017
Currently Today's Max Today's Min Today's Average
Temperature 56.8°F13.8°C 59.9°F15.5°C 56.7°F13.7°C 57.7°F14.3°C
Dew Point 44.4°F6.9°C 44.4°F6.9°C 42.8°F6.0°C 43.3°F6.3°C
Winds 1.2 mph SSE1.9 kmh SSE 1.8 mph WSW2.9 kmh WSW - 1.0 mph 1.6 kmh
Wind Gusts -- 3.8 mph6.1 kmh - -
Humidity 68% 68% 57% 63%
Pressure 30.24 in1024.0 mb 30.28 in1025.4 mb 30.23 in1023.7 mb -
Precipitation - 0.04 in1.0 mm - -
Hour Temp Dew Point Humidity Winds Wind Gusts Pressure Precip Precip Rate Daily Precip Total
06:51 AM 56.8°F13.8°C 44.4°F6.9°C 68% 1.3 mph ESE2.1 kmh ESE 3.1 mph5.0 kmh 30.23 in1023.7 mb 0.00 in0.0 mm 0.00 in0.0 mm 0.04 in1.0 mm
06:31 AM 56.8°F13.8°C 44.4°F6.9°C 68% 1.3 mph SSE2.1 kmh SSE 3.1 mph5.0 kmh 30.24 in1024.0 mb 0.00 in0.0 mm 0.00 in0.0 mm 0.04 in1.0 mm
06:11 AM 56.7°F13.7°C 43.7°F6.5°C 67% 1.3 mph SE2.1 kmh SE 3.8 mph6.1 kmh 30.24 in1024.0 mb 0.00 in0.0 mm 0.00 in0.0 mm 0.04 in1.0 mm
05:57 AM 56.7°F13.7°C 43.7°F6.5°C 67% 1.3 mph ESE2.1 kmh ESE 3.1 mph5.0 kmh 30.24 in1024.0 mb 0.00 in0.0 mm 0.04 in1.0 mm 0.04 in1.0 mm
05:51 AM 56.7°F13.7°C 43.7°F6.5°C 67% 1.2 mph SE1.9 kmh SE -- 30.24 in1024.0 mb 0.00 in0.0 mm 0.00 in0.0 mm 0.04 in1.0 mm
05:36 AM 56.7°F13.7°C 43.7°F6.5°C 67% 1.3 mph SE2.1 kmh SE 2.5 mph4.0 kmh 30.24 in1024.0 mb 0.00 in0.0 mm 0.00 in0.0 mm 0.04 in1.0 mm
05:17 AM 56.7°F13.7°C 43.3°F6.3°C 66% 0.7 mph E1.1 kmh E 1.8 mph2.9 kmh 30.24 in1024.0 mb 0.00 in0.0 mm 0.00 in0.0 mm 0.04 in1.0 mm
04:56 AM 56.8°F13.8°C 43.5°F6.4°C 66% 0.7 mph E1.1 kmh E 2.5 mph4.0 kmh 30.24 in1024.0 mb 0.00 in0.0 mm 0.00 in0.0 mm 0.04 in1.0 mm
04:51 AM 56.8°F13.8°C 43.2°F6.2°C 65% 0.6 mph SSE1.0 kmh SSE -- 30.25 in1024.4 mb 0.01 in0.3 mm 0.00 in0.0 mm 0.04 in1.0 mm
04:36 AM 56.8°F13.8°C 43.2°F6.2°C 65% 0.7 mph SSE1.1 kmh SSE 1.3 mph2.1 kmh 30.25 in1024.4 mb 0.01 in0.3 mm 0.00 in0.0 mm 0.04 in1.0 mm
04:16 AM 56.8°F13.8°C 43.2°F6.2°C 65% 0.7 mph SW1.1 kmh SW 1.3 mph2.1 kmh 30.25 in1024.4 mb 0.02 in0.5 mm 0.00 in0.0 mm 0.04 in1.0 mm
04:04 AM 57.0°F13.9°C 43.3°F6.3°C 65% 1.3 mph SW2.1 kmh SW 2.5 mph4.0 kmh 30.25 in1024.4 mb 0.02 in0.5 mm 0.00 in0.0 mm 0.03 in0.8 mm
03:51 AM 57.2°F14.0°C 43.2°F6.2°C 64% 1.2 mph WSW1.9 kmh WSW -- 30.25 in1024.4 mb 0.02 in0.5 mm 0.00 in0.0 mm 0.03 in0.8 mm
03:36 AM 57.2°F14.0°C 43.2°F6.2°C 64% 1.3 mph WSW2.1 kmh WSW 2.5 mph4.0 kmh 30.25 in1024.4 mb 0.02 in0.5 mm 0.04 in1.0 mm 0.03 in0.8 mm
03:17 AM 57.6°F14.2°C 43.3°F6.3°C 64% 1.8 mph WSW2.9 kmh WSW 3.8 mph6.1 kmh 30.26 in1024.7 mb 0.01 in0.3 mm 0.01 in0.3 mm 0.02 in0.5 mm
02:59 AM 57.7°F14.3°C 43.2°F6.2°C 63% 1.3 mph WSW2.1 kmh WSW 3.1 mph5.0 kmh 30.27 in1025.1 mb 0.00 in0.0 mm 0.00 in0.0 mm 0.01 in0.3 mm
02:39 AM 58.1°F14.5°C 43.2°F6.2°C 62% 0.6 mph SW1.0 kmh SW -- 30.26 in1024.7 mb 0.00 in0.0 mm 0.00 in0.0 mm 0.01 in0.3 mm
02:19 AM 58.1°F14.5°C 43.2°F6.2°C 62% 1.3 mph SW2.1 kmh SW 2.5 mph4.0 kmh 30.26 in1024.7 mb 0.00 in0.0 mm 0.00 in0.0 mm 0.01 in0.3 mm
01:53 AM 58.3°F14.6°C 43.0°F6.1°C 61% 0.7 mph SSW1.1 kmh SSW 1.8 mph2.9 kmh 30.25 in1024.4 mb 0.00 in0.0 mm 0.00 in0.0 mm 0.00 in0.0 mm
01:51 AM 58.6°F14.8°C 42.8°F6.0°C 60% 1.2 mph SW1.9 kmh SW -- 30.27 in1025.1 mb 0.00 in0.0 mm 0.00 in0.0 mm 0.00 in0.0 mm
01:34 AM 58.6°F14.8°C 42.8°F6.0°C 60% 1.3 mph SW2.1 kmh SW 3.8 mph6.1 kmh 30.27 in1025.1 mb 0.00 in0.0 mm 0.00 in0.0 mm 0.00 in0.0 mm
01:13 AM 59.0°F15.0°C 42.8°F6.0°C 59% 1.3 mph SW2.1 kmh SW 3.1 mph5.0 kmh 30.28 in1025.4 mb 0.00 in0.0 mm 0.01 in0.3 mm 0.00 in0.0 mm
12:53 AM 59.4°F15.2°C 42.8°F6.0°C 58% 0.7 mph SW1.1 kmh SW 1.3 mph2.1 kmh 30.27 in1025.1 mb 0.00 in0.0 mm 0.00 in0.0 mm 0.00 in0.0 mm
12:51 AM 59.7°F15.4°C 43.0°F6.1°C 58% 0.6 mph SW1.0 kmh SW -- 30.28 in1025.4 mb 0.00 in0.0 mm 0.00 in0.0 mm 0.00 in0.0 mm
12:33 AM 59.7°F15.4°C 43.0°F6.1°C 58% 0.7 mph SW1.1 kmh SW 1.8 mph2.9 kmh 30.28 in1025.4 mb 0.00 in0.0 mm 0.00 in0.0 mm 0.00 in0.0 mm
12:12 AM 59.9°F15.5°C 42.8°F6.0°C 57% 0.7 mph SW1.1 kmh SW 1.3 mph2.1 kmh 30.27 in1025.1 mb 0.00 in0.0 mm 0.00 in0.0 mm 0.00 in0.0 mm